This is the latest recevied weather packets stored in our database for station/object KE8URB. If no packets are shown the sender has not sent any weather packets the latest 10 day(s).
| Time | Temp. | Humidity | Pressure | Rain* | Wind** | Luminosity | Snow |
|---|---|---|---|---|---|---|---|
| 1787784140 | 25° C | 66% | 1015.5 hPa | 0 mm | - | 77 W/m² | - |
| 1787783836 | 25° C | 67% | 1015.2 hPa | 0 mm | - | 41 W/m² | - |
| 1787783531 | 25° C | 65% | 1015.4 hPa | 0 mm | - | 85 W/m² | - |
| 1787783226 | 25° C | 66% | 1015.4 hPa | 0 mm | - | 122 W/m² | - |
| 1787782921 | 25° C | 64% | 1015.4 hPa | 0 mm | - | 127 W/m² | - |
| 1787782620 | 25.56° C | 63% | 1015.4 hPa | 0 mm | - | 42 W/m² | - |
| 1787782315 | 25.56° C | 63% | 1015.3 hPa | 0 mm | - | 144 W/m² | - |
| 1787782012 | 25.56° C | 65% | 1015.5 hPa | 0 mm | - | 161 W/m² | - |
| 1787781707 | 25.56° C | 63% | 1015.3 hPa | 0 mm | - | 176 W/m² | - |
| 1787781404 | 25.56° C | 66% | 1015.4 hPa | 0 mm | - | 202 W/m² | - |
| 1787781104 | 25.56° C | 64% | 1015.3 hPa | 0 mm | - | 205 W/m² | - |
| 1787780803 | 25.56° C | 65% | 1015.8 hPa | 0 mm | - | 222 W/m² | - |
| 1787780502 | 25.56° C | 65% | 1015.5 hPa | 0 mm | - | 75 W/m² | - |
| 1787780198 | 26.11° C | 64% | 1015.7 hPa | 0 mm | - | 266 W/m² | - |
| 1787779893 | 26.11° C | 66% | 1015.7 hPa | 0 mm | - | 284 W/m² | - |
| 1787779593 | 26.11° C | 65% | 1015.7 hPa | 0 mm | - | 276 W/m² | - |
| 1787779288 | 26.11° C | 64% | 1015.6 hPa | 0 mm | - | 327 W/m² | - |
| 1787778982 | 26.11° C | 66% | 1015.8 hPa | 0 mm | - | 347 W/m² | - |
| 1787778678 | 26.11° C | 66% | 1015.7 hPa | 0 mm | - | 359 W/m² | - |
| 1787778374 | 25.56° C | 62% | 1015.6 hPa | 0 mm | - | 348 W/m² | - |
| 1787778070 | 26.11° C | 64% | 1015.7 hPa | 0 mm | - | 359 W/m² | - |
| 1787777769 | 25.56° C | 63% | 1015.8 hPa | 0 mm | - | 344 W/m² | - |
| 1787777466 | 25.56° C | 65% | 1015.7 hPa | 0 mm | - | 318 W/m² | - |
| 1787777165 | 26.11° C | 63% | 1015.9 hPa | 0 mm | - | 425 W/m² | - |
| 1787776864 | 25° C | 65% | 1016.1 hPa | 0 mm | - | 240 W/m² | - |
* Rain latest hour (hover to see other rain measurements)
** Current wind speed in m/s (hover to see current wind gust speed)